This is the latest recevied weather packets stored in our database for station/object N1UNH. If no packets are shown the sender has not sent any weather packets the latest 10 day(s).
| Time | Temp. | Humidity | Pressure | Rain* | Wind** | Luminosity | Snow |
|---|---|---|---|---|---|---|---|
| 1778000558 | 27.22° C | 34% | 1011.1 hPa | 0 mm | - | 856 W/m² | - |
| 1777999954 | 27.78° C | 32% | 1011.5 hPa | 0 mm | - | 456 W/m² | - |
| 1777999650 | 27.78° C | 32% | 1011.6 hPa | 0 mm | - | 891 W/m² | - |
| 1777999347 | 27.22° C | 35% | 1011.5 hPa | 0 mm | - | 880 W/m² | - |
| 1777999045 | 26.67° C | 34% | 1011.7 hPa | 0 mm | - | 433 W/m² | - |
| 1777998744 | 26.67° C | 35% | 1011.7 hPa | 0 mm | - | 911 W/m² | - |
| 1777998441 | 27.22° C | 34% | 1012 hPa | 0 mm | - | 424 W/m² | - |
| 1777998138 | 26.67° C | 33% | 1012.2 hPa | 0 mm | - | 853 W/m² | - |
| 1777997834 | 26.11° C | 35% | 1012.2 hPa | 0 mm | - | 848 W/m² | - |
| 1777997532 | 26.11° C | 34% | 1012.1 hPa | 0 mm | - | 859 W/m² | - |
| 1777997229 | 26.11° C | 34% | 1012.8 hPa | 0 mm | - | 821 W/m² | - |
| 1777996927 | 26.11° C | 35% | 1012.6 hPa | 0 mm | - | 874 W/m² | - |
| 1777996623 | 26.11° C | 35% | 1012.8 hPa | 0 mm | - | 904 W/m² | - |
| 1777996319 | 26.11° C | 35% | 1012.9 hPa | 0 mm | - | 842 W/m² | - |
| 1777996016 | 26.11° C | 35% | 1012.8 hPa | 0 mm | - | 866 W/m² | - |
| 1777995712 | 26.11° C | 36% | 1012.7 hPa | 0 mm | - | 840 W/m² | - |
| 1777995409 | 26.11° C | 35% | 1013.1 hPa | 0 mm | - | 819 W/m² | - |
| 1777995106 | 25.56° C | 36% | 1012.8 hPa | 0 mm | - | 802 W/m² | - |
| 1777994803 | 25° C | 36% | 1013 hPa | 0 mm | - | 750 W/m² | - |
| 1777994498 | 25° C | 38% | 1013.1 hPa | 0 mm | - | 415 W/m² | - |
| 1777994194 | 25° C | 37% | 1013.1 hPa | 0 mm | - | 332 W/m² | - |
| 1777993891 | 24.44° C | 37% | 1013.2 hPa | 0 mm | - | 437 W/m² | - |
| 1777993587 | 24.44° C | 38% | 1013.1 hPa | 0 mm | - | 549 W/m² | - |
| 1777993285 | 23.89° C | 40% | 1013.2 hPa | 0 mm | - | 485 W/m² | - |
| 1777992980 | 23.89° C | 40% | 1013.4 hPa | 0 mm | - | 402 W/m² | - |
* Rain latest hour (hover to see other rain measurements)
** Current wind speed in m/s (hover to see current wind gust speed)